Wind_Speed
6 6 5 5 5 4 4 5 5 6 6 6 7 7 7 7 7 7 6 6 6 6 6 6 7 7 8 9 9 9 9 9 8 8 7 7 8 8 8 8 7 7 8
6 6 5 6 6 5 5 5 6 6 5 6 6 7 7 7 7 7 7 7 7 7 7 7 8 8 8 9 10 10 9 8 8 8 8 8 8 8 8 9 8 7 8
7 7 7 7 6 6 5 5 5 5 5 6 7 8 7 7 7 7 7 8 8 8 8 8 8 8 9 9 9 10 10 9 9 8 8 8 8 9 9 10 9 9 9
8 7 7 7 7 6 5 5 5 6 6 7 7 8 8 7 7 8 8 8 8 8 8 8 8 8 8 9 9 10 10 10 10 10 9 9 9 9 10 11 11 11 10
8 8 7 7 7 7 6 6 7 7 7 8 8 9 9 9 9 9 9 9 9 9 9 9 8 8 9 10 11 11 11 11 11 11 11 11 10 10 11 12 12 12 12
10 10 8 8 7 7 7 7 8 8 8 8 9 10 10 10 10 10 9 10 10 10 10 10 10 11 11 12 12 12 13 12 13 13 13 12 12 13 12 13 13 13 13
11 10 8 8 7 8 8 8 8 9 9 10 10 10 11 11 11 11 11 11 11 10 11 12 12 13 13 13 13 14 14 14 14 14 14 14 14 14 14 13 13 13 14
11 11 9 8 8 9 9 10 10 10 10 11 11 11 11 11 11 12 13 13 13 13 14 14 14 14 15 15 15 15 15 15 15 15 15 15 16 16 15 14 13 13 14
11 11 10 10 10 10 10 10 11 11 11 12 12 13 13 13 13 13 14 15 15 15 14 14 15 15 15 15 16 16 16 16 16 16 16 16 16 16 15 15 15 14 14
12 11 11 11 12 12 11 11 11 11 11 11 11 12 13 13 13 13 14 15 15 15 15 14 14 15 15 16 16 17 17 17 17 17 17 17 17 16 16 17 16 16 16
12 12 12 12 13 13 12 12 12 12 11 11 12 12 13 14 14 14 14 15 14 15 15 16 16 17 17 17 17 17 17 18 18 18 18 18 18 18 18 18 18 18 18
13 13 14 14 14 14 14 14 13 13 13 13 13 13 14 14 13 13 13 14 15 16 17 17 17 18 18 18 18 18 18 18 18 19 19 20 20 19 19 19 19 19 19
15 15 15 15 16 16 15 15 14 14 14 14 13 13 14 14 14 14 14 15 15 16 17 18 19 19 19 19 20 19 19 19 18 19 20 20 21 20 20 20 20 21 21
16 16 16 17 17 16 16 15 15 15 16 15 15 14 14 15 15 15 15 15 16 17 18 18 18 19 19 20 20 20 20 19 20 20 21 21 22 22 21 22 22 23 23
17 17 17 18 18 18 17 16 16 16 17 16 16 16 16 16 16 16 16 16 17 17 17 18 18 19 20 20 20 20 20 21 21 22 21 22 22 23 23 23 24 24 24
18 18 18 18 18 19 18 18 18 18 17 17 18 18 17 17 18 18 18 18 17 17 18 19 20 20 20 20 21 22 21 21 21 21 21 21 22 23 24 25 25 25 24
20 19 19 19 19 19 19 19 19 19 19 19 19 19 19 18 19 19 19 19 19 19 18 19 19 19 20 20 21 21 21 21 21 21 21 21 22 23 23 24 25 25 25
20 20 20 20 20 20 20 19 19 20 19 19 19 19 20 20 20 20 20 19 19 19 19 19 20 20 20 20 20 21 21 21 21 22 21 22 22 23 23 24 25 25 25
22 22 21 21 21 20 20 19 20 20 19 20 20 20 20 20 20 20 20 20 20 20 19 20 20 20 20 20 21 21 21 21 21 22 22 22 22 22 24 24 25 26 26
22 22 21 21 21 20 20 20 20 20 20 21 21 21 20 20 20 20 20 21 21 20 20 20 20 20 20 20 21 21 21 21 22 22 22 22 22 22 23 24 25 26 26
22 22 21 21 21 20 20 20 20 20 21 22 21 21 21 21 21 21 21 21 21 21 21 21 20 20 21 21 21 21 21 21 22 22 22 22 23 23 23 24 24 25 26
23 23 22 21 21 21 21 21 21 21 22 22 21 21 22 22 22 22 22 22 21 21 21 21 20 20 20 21 20 21 21 22 22 23 23 23 23 23 23 23 24 24 24
23 23 22 22 22 21 21 21 22 22 22 22 21 21 21 22 22 23 23 22 21 21 21 20 20 20 20 20 21 21 22 22 22 22 22 22 23 23 22 22 23 23 23
24 24 23 22 22 22 22 22 22 22 22 22 21 21 21 21 21 22 22 21 21 20 21 21 20 20 20 21 21 22 22 22 22 22 22 22 22 23 23 22 22 22 23
24 23 24 23 22 22 22 23 23 22 21 21 21 21 21 20 21 20 21 21 21 21 21 21 21 20 20 20 21 21 21 21 20 21 21 21 22 22 21 22 22 22 22
23 23 23 23 22 22 22 22 22 22 22 22 21 21 21 20 19 19 19 20 21 21 21 21 21 20 20 20 20 21 21 21 21 21 21 21 21 21 21 21 21 22 22
Wind_Direction
317 309 303 308 299 293 288 284 283 272 263 253 251 255 261 260 258 258 259 261 266 270 272 275 275 279 281 272 274 273 272 268 265 271 266 262 261 258 260 263 262 264 255
317 312 310 312 310 307 300 286 279 273 263 254 253 256 258 260 262 261 259 262 267 269 267 270 268 272 276 278 277 274 271 272 268 270 270 266 264 263 263 259 263 265 259
305 302 304 308 305 301 296 285 277 273 263 252 252 251 251 253 259 267 262 261 264 268 268 271 271 270 274 276 275 273 273 271 270 271 272 268 268 266 266 263 264 261 258
306 304 292 297 295 295 296 286 279 274 266 260 255 249 249 252 254 262 264 263 264 267 266 268 272 272 276 277 277 275 273 270 268 268 271 274 272 268 269 264 263 262 260
305 306 294 293 294 291 291 286 282 274 270 265 260 257 256 257 258 263 265 266 266 266 267 265 268 271 275 277 277 276 272 268 267 268 269 271 273 273 271 265 263 262 261
305 299 297 292 295 291 287 285 282 276 273 269 263 262 262 260 259 263 266 268 269 267 264 263 265 268 272 276 277 277 273 269 269 270 271 270 269 270 272 269 265 261 261
302 298 293 292 295 292 287 287 285 281 276 272 268 265 262 260 262 263 266 268 269 270 267 264 264 266 271 277 281 282 274 270 271 271 270 268 268 270 273 272 268 262 260
296 292 283 289 293 292 288 285 283 281 277 275 272 268 261 260 260 262 262 265 268 270 270 268 265 266 268 275 277 277 274 271 271 271 269 266 267 270 272 271 271 268 263
289 288 280 284 288 288 285 284 284 283 281 277 270 264 264 263 263 263 264 266 268 270 272 270 267 267 268 272 275 274 274 272 271 269 267 266 266 268 268 269 271 270 268
283 282 280 281 283 286 285 283 282 280 279 278 273 269 267 265 266 267 268 269 271 270 271 271 269 271 273 274 273 269 271 269 270 269 265 264 265 266 267 266 267 268 267
276 275 276 277 281 283 283 283 283 279 276 276 274 271 265 265 267 267 268 268 270 271 272 270 269 271 278 278 276 272 270 268 269 266 265 265 266 267 267 265 265 265 265
272 274 274 275 278 279 281 282 281 279 277 275 273 270 268 265 267 269 270 270 272 275 274 271 270 272 276 277 278 276 273 271 269 267 266 265 266 266 265 264 264 263 263
273 274 273 274 276 276 279 278 277 276 277 276 272 269 269 267 268 271 272 272 273 274 275 273 271 272 274 276 277 276 273 270 268 269 268 267 266 265 264 264 264 264 263
273 272 274 274 274 275 277 276 274 275 276 276 273 270 269 271 271 273 274 274 276 275 275 277 277 276 276 277 276 275 271 269 269 271 270 268 267 266 265 265 264 264 264
272 273 274 276 274 272 273 275 274 273 274 272 271 270 270 271 272 273 275 277 278 277 276 278 280 279 278 277 276 275 273 271 270 272 271 270 267 266 265 266 266 264 262
273 274 275 276 275 275 275 275 273 270 272 272 271 269 269 271 274 274 276 279 279 279 279 279 282 282 279 278 278 275 272 271 270 272 273 273 271 269 267 267 267 265 263
270 272 274 275 275 275 275 274 271 271 272 272 273 271 270 273 276 276 278 279 280 281 281 280 282 281 280 280 280 275 273 270 270 270 271 275 275 271 269 268 266 265 266
267 269 270 270 271 271 272 272 271 271 272 273 274 272 271 275 276 279 277 278 280 281 282 283 283 281 280 281 280 278 274 272 270 271 273 276 277 273 270 269 267 267 267
268 268 267 266 268 269 270 271 271 271 271 272 272 273 273 276 277 278 278 279 280 281 282 283 283 282 281 281 279 279 276 273 271 272 273 275 277 276 272 269 267 267 267
267 266 266 265 266 267 270 271 270 271 271 272 272 273 275 274 275 276 277 279 279 280 282 283 283 281 281 281 281 280 278 278 275 274 274 274 277 278 275 273 271 270 267
266 266 266 264 264 267 269 269 270 269 271 273 273 273 273 273 273 274 275 278 278 279 281 282 283 281 280 280 282 281 281 280 278 276 275 276 278 278 278 276 274 272 270
264 264 263 264 264 266 268 268 269 270 271 271 271 273 272 273 272 272 274 275 277 279 280 282 282 281 280 280 282 283 282 281 279 276 275 274 275 277 278 278 277 275 274
264 262 263 265 266 267 266 267 267 268 269 269 270 273 274 272 272 272 271 273 277 279 281 282 281 280 279 279 280 281 283 283 281 277 274 273 274 276 277 279 279 276 274
266 264 263 265 266 265 266 266 266 267 270 270 271 273 274 275 275 272 271 272 275 279 282 283 282 281 279 279 280 280 282 282 279 278 276 275 275 276 276 280 279 277 275
266 267 263 264 264 264 265 265 264 265 267 269 271 271 273 275 274 273 271 272 274 278 281 282 283 281 281 280 280 281 283 283 282 279 278 276 275 275 278 282 282 279 276
264 264 264 262 260 262 264 265 265 266 268 269 271 271 271 272 272 273 274 273 273 276 278 281 282 280 280 280 280 280 282 282 281 280 279 277 275 276 279 281 283 282 279
Height
5866 5866 5865 5864 5864 5863 5863 5862 5862 5862 5862 5862 5862 5863 5863 5863 5864 5864 5864 5864 5864 5864 5864 5864 5864 5864 5863 5863 5863 5862 5862 5862 5862 5862 5862 5862 5862 5862 5862 5862 5862 5862 5862
5865 5864 5864 5863 5862 5862 5861 5860 5860 5860 5860 5860 5860 5861 5861 5862 5862 5862 5862 5862 5863 5862 5862 5862 5862 5862 5862 5861 5861 5860 5860 5860 5860 5860 5860 5860 5860 5860 5860 5860 5860 5860 5860
5863 5862 5862 5862 5861 5860 5860 5859 5859 5858 5858 5858 5858 5859 5859 5859 5860 5860 5860 5860 5860 5860 5860 5860 5860 5860 5860 5859 5859 5858 5858 5858 5858 5858 5858 5858 5858 5858 5858 5858 5858 5858 5858
5861 5860 5860 5860 5859 5859 5858 5858 5857 5857 5856 5856 5857 5857 5857 5858 5858 5858 5858 5858 5858 5858 5858 5858 5858 5857 5857 5857 5857 5856 5856 5856 5856 5856 5856 5855 5855 5855 5855 5855 5855 5855 5855
5859 5858 5858 5858 5857 5856 5856 5856 5855 5855 5855 5855 5855 5855 5855 5855 5855 5855 5855 5855 5855 5855 5855 5855 5855 5855 5855 5854 5854 5853 5853 5853 5853 5853 5853 5853 5853 5853 5852 5852 5852 5852 5852
5856 5856 5856 5855 5855 5854 5854 5853 5853 5852 5852 5852 5852 5852 5853 5853 5853 5853 5853 5853 5853 5853 5853 5853 5853 5852 5852 5851 5851 5850 5850 5850 5850 5850 5850 5850 5850 5849 5849 5849 5848 5848 5848
5854 5853 5853 5852 5852 5852 5851 5851 5850 5850 5850 5850 5850 5850 5850 5850 5850 5850 5850 5850 5850 5849 5849 5849 5849 5849 5848 5848 5847 5847 5847 5847 5846 5846 5846 5846 5846 5845 5846 5845 5845 5845 5845
5851 5851 5850 5850 5850 5849 5849 5848 5848 5847 5847 5846 5846 5846 5847 5847 5847 5846 5846 5846 5846 5846 5845 5845 5845 5845 5845 5844 5843 5843 5843 5842 5842 5842 5842 5842 5842 5842 5841 5841 5841 5841 5841
5848 5848 5848 5847 5847 5846 5846 5846 5845 5844 5844 5843 5843 5843 5843 5843 5843 5843 5842 5842 5842 5841 5841 5841 5840 5840 5840 5840 5839 5839 5838 5838 5838 5838 5838 5838 5837 5837 5837 5837 5837 5837 5837
5845 5845 5844 5844 5844 5843 5843 5842 5841 5841 5840 5840 5839 5839 5839 5839 5839 5839 5839 5838 5838 5837 5837 5836 5836 5836 5835 5834 5834 5834 5833 5833 5833 5833 5833 5833 5833 5833 5833 5833 5833 5833 5833
5841 5841 5841 5840 5840 5840 5839 5839 5838 5837 5836 5836 5835 5835 5835 5835 5835 5835 5834 5834 5834 5833 5832 5832 5831 5831 5830 5829 5828 5828 5828 5828 5828 5828 5828 5828 5828 5828 5828 5828 5828 5828 5828
5837 5837 5837 5836 5836 5836 5836 5835 5834 5833 5832 5832 5831 5830 5830 5830 5830 5830 5830 5830 5829 5829 5828 5827 5827 5826 5826 5825 5824 5823 5823 5823 5823 5823 5823 5822 5822 5822 5822 5822 5822 5823 5823
5833 5833 5832 5832 5832 5831 5831 5830 5830 5829 5828 5827 5827 5826 5826 5826 5825 5825 5825 5825 5824 5824 5823 5822 5821 5820 5820 5819 5818 5817 5817 5817 5817 5817 5817 5816 5816 5816 5816 5816 5817 5817 5817
5828 5828 5828 5827 5827 5826 5826 5825 5825 5824 5824 5823 5823 5822 5822 5821 5821 5820 5820 5820 5819 5818 5817 5816 5815 5814 5813 5812 5811 5811 5811 5811 5811 5810 5810 5810 5810 5810 5810 5810 5810 5811 5811
5823 5823 5822 5822 5821 5821 5821 5820 5820 5820 5819 5818 5818 5817 5817 5817 5816 5815 5815 5814 5814 5813 5812 5810 5809 5808 5807 5806 5805 5804 5804 5804 5804 5804 5804 5803 5803 5803 5803 5803 5804 5804 5804
5817 5817 5817 5817 5816 5815 5815 5815 5815 5815 5814 5813 5813 5812 5812 5811 5810 5810 5809 5808 5807 5807 5806 5805 5803 5802 5800 5799 5798 5797 5797 5797 5797 5797 5797 5797 5796 5796 5796 5797 5797 5797 5797
5812 5812 5812 5811 5811 5810 5810 5809 5809 5809 5808 5808 5807 5807 5806 5806 5804 5804 5803 5802 5801 5801 5800 5798 5797 5795 5794 5793 5792 5791 5791 5791 5790 5790 5790 5790 5789 5789 5789 5789 5790 5790 5790
5807 5806 5806 5806 5805 5805 5804 5804 5803 5803 5802 5802 5801 5801 5800 5800 5799 5798 5797 5796 5796 5795 5794 5793 5791 5790 5789 5787 5786 5785 5784 5784 5784 5784 5783 5783 5783 5782 5782 5782 5782 5782 5783
5800 5800 5800 5800 5800 5799 5798 5798 5797 5797 5796 5796 5795 5795 5794 5793 5792 5792 5791 5791 5790 5789 5788 5787 5786 5784 5783 5781 5780 5779 5778 5778 5778 5777 5777 5777 5776 5775 5775 5775 5775 5775 5775
5793 5793 5793 5793 5794 5793 5792 5792 5791 5791 5790 5789 5789 5788 5788 5787 5787 5786 5785 5785 5784 5783 5782 5781 5780 5778 5777 5775 5774 5773 5772 5772 5771 5771 5771 5770 5770 5769 5768 5768 5768 5767 5767
5787 5787 5787 5787 5787 5787 5786 5786 5785 5785 5784 5784 5783 5782 5781 5781 5780 5780 5779 5779 5778 5777 5776 5775 5773 5772 5771 5770 5769 5768 5767 5766 5765 5764 5764 5764 5763 5762 5761 5760 5760 5759 5759
5780 5779 5779 5779 5780 5780 5780 5779 5778 5778 5778 5777 5777 5776 5775 5774 5774 5773 5773 5772 5772 5771 5770 5769 5767 5766 5765 5764 5763 5762 5761 5760 5759 5758 5757 5757 5756 5755 5754 5753 5753 5752 5751
5772 5772 5773 5773 5773 5773 5773 5772 5772 5771 5771 5771 5770 5769 5768 5768 5767 5767 5766 5766 5765 5764 5764 5763 5762 5761 5759 5758 5758 5757 5755 5754 5753 5751 5751 5750 5749 5749 5748 5746 5745 5744 5743
5765 5765 5765 5766 5766 5766 5766 5765 5765 5764 5764 5764 5763 5763 5762 5761 5760 5760 5760 5759 5758 5758 5757 5757 5756 5755 5753 5752 5751 5750 5749 5748 5747 5745 5744 5744 5743 5742 5741 5740 5739 5738 5736
5758 5758 5758 5758 5758 5758 5758 5758 5758 5757 5757 5757 5757 5756 5755 5755 5754 5753 5753 5752 5752 5751 5751 5750 5749 5748 5747 5746 5745 5744 5743 5742 5740 5739 5738 5738 5737 5736 5735 5734 5732 5731 5730
5750 5751 5751 5751 5751 5751 5751 5750 5750 5750 5750 5750 5750 5749 5749 5748 5748 5747 5747 5747 5746 5745 5745 5744 5743 5742 5741 5740 5738 5737 5736 5736 5734 5733 5732 5731 5731 5730 5729 5727 5726 5724 5723